Flight Information

DEPARTURE
EAGLE, CO
Elevation:
6547
Runways:
7/25 - 9000x150 - ASPH-E
ATIS:
135.575
Clearance Delivery:
124.75
Ground:
121.8
Tower:
EAGLE TOWER 119.8
DESTINATION
,
Elevation:
TPA:
1000 (est.)


6176.6 NM79° True-12° Var66° HDG

Flight Plan:
(click to file on line)

1. Type
2. Aircraft Identification
3. Aircraft Type / Special Equipment
4. True Airspeed
kts
5. Departure Airport
(ICAO code)
6. Arriving Airport
(ICAO code)
7. Cruising Altitude
ft
8. Alternate Airport
(ICAO code)
9. Route of Flight
10. Remarks


00:00:00 Departure ATIS: Destination ATIS:

Clearance Limit:
Route:
Altitude: Expect in minutes
Frequency:
Transponder: (7500 Hijack / 7600 Lost Comms / 7700 Emergency)


KEGE 282156Z 00000KT 10SM CLR M04/M14 A3058 RMK AO2 SLP459 T10441144
Time: 2022-01-28T21:56:00Z
1643407235
Winds: calm
Visibility: 10.0 sm
Clouds (AGL): CLR
Temperature: -4.4 C
Dew Point: -14.4 C
Pressure: 30.578741 in Hgbr


Notes:

Data extracted from FAA Digital Chart Supplement. Effective: 0901Z Thursday, DEC 2, 2021 to 0901Z Thursday, JAN 27, 2022
Current ATIS data is provided courtisy of PilotEdge.